Location: Lac de la Montagne noire
(46.1952°N, 74.2701°W)
Time: 14:35:36
(UTC-04:00)

Envisat - Pass Details

Date: 24 March 2019
Orbit: 764 x 766 km, 98.1° (Epoch: 21 October)

Event Time Altitude Azimuth Distance (km) Brightness Sun altitude
Rises 20:03:16 0° 184° (S) 3,215 6.1 -9.1°
Reaches altitude 10° 20:05:40 10° 192° (SSW) 2,294 5.5 -9.5°
Maximum altitude 20:10:27 42° 262° (W) 1,088 4.4 -10.3°
Drops below altitude 10° 20:15:16 10° 333° (NNW) 2,311 6.1 -11.1°
Sets 20:17:43 0° 341° (NNW) 3,242 6.8 -11.6°
